Content
SEND FEEDBACK

Daily
Averages
Monthly
Summary
Germany

BERLIN, GERMANY


Home > Europe > Germany
Elevation: 157 feet     Latitude: 52 23N     Longitude: 013 31E

WEATHER
 
SELECT A DAY
Number of Records: 251,638;   Date Range: 7/3/96 - 7/28/14
 
SHARE

PRINT THIS DATA

[ ← Previous Day ]
WEATHER ALMANAC - JANUARY 10, 2013
[ Next Day → ]
[ °C ]   °F
Weather ElementAverageHighLow
Temperature37.2 °F41 °F (12:50 am)32 °F (8:50 pm)
Dewpoint34.1 °F37.4 °F (12:50 am)24.8 °F (11:50 pm)
Humidity88.6 %93 % (9:50 am)75 % (11:50 pm)
Barometer29.71 in29.80 in (12:50 am)29.65 in (12:50 pm)
Wind Speed14.7 mph21.9 mph (6:20 am)
Wind Gust32.2 mph (8:50 am)
Weather ElementAverage
Visibility5.9 mi
Wind DirectionWNW (294.7 °)

Weather ElementTotal
Precipitation---
Heating Degree Days28.5 (Base 65)
Averaged from 47 records on January 10, 2013
WEATHER CONDITIONS BREAKOUT
WIND DIRECTION BREAKOUT
WEATHER BY HOUR - JANUARY 10, 2013
[ °C ]   °F
Local TimeTemperatureDewpointHumidityBarometerVisibilityWind DirectionWind SpeedGust SpeedPrecipitationEventsConditions
12:50 AM41.0 °F37.4 °F87 %29.80 in6.2 miWNW (290°)15.0 mphMostly Cloudy
1:20 AM41.0 °F37.4 °F87 %29.80 in6.2 miWest (280°)15.0 mphMostly Cloudy
1:50 AM41.0 °F37.4 °F87 %29.80 in6.2 miWest (270°)13.8 mphMostly Cloudy
2:20 AM41.0 °F37.4 °F87 %29.77 in6.2 miWest (270°)16.1 mphMostly Cloudy
2:50 AM41.0 °F37.4 °F87 %29.77 in6.2 miWest (280°)17.3 mphMostly Cloudy
3:20 AM41.0 °F37.4 °F87 %29.77 in6.2 miWest (280°)17.3 mphMostly Cloudy
3:50 AM39.2 °F35.6 °F87 %29.77 in6.2 miWest (270°)17.3 mphScattered Clouds
4:20 AM39.2 °F35.6 °F87 %29.74 in6.2 miWest (270°)17.3 mphOvercast
4:50 AM39.2 °F35.6 °F87 %29.74 in6.2 miWest (270°)18.4 mphOvercast
5:20 AM39.2 °F35.6 °F87 %29.74 in6.2 miWest (270°)17.3 mphOvercast
5:50 AM39.2 °F35.6 °F87 %29.74 in6.2 miWest (270°)18.4 mphOvercast
6:20 AM39.2 °F35.6 °F87 %29.74 in6.2 miWest (270°)21.9 mphMostly Cloudy
6:50 AM39.2 °F35.6 °F87 %29.74 in6.2 miWest (270°)21.9 mphMostly Cloudy
7:20 AM39.2 °F35.6 °F87 %29.71 in6.2 miWest (270°)18.4 mphMostly Cloudy
7:50 AM39.2 °F35.6 °F87 %29.71 in6.2 miWest (270°)18.4 mphMostly Cloudy
8:20 AM39.2 °F35.6 °F87 %29.71 in6.2 miWest (270°)18.4 mphMostly Cloudy
8:50 AM39.2 °F35.6 °F87 %29.71 in6.2 miWest (270°)20.7 mph32.2 mphMostly Cloudy
9:20 AM41.0 °F37.4 °F87 %29.71 in5.0 miWest (270°)19.6 mphLight Drizzle
9:50 AM39.2 °F37.4 °F93 %29.68 in6.2 miWest (270°)19.6 mphRainLight Rain
10:20 AM41.0 °F37.4 °F87 %29.68 in6.2 miWest (270°)18.4 mphMostly Cloudy
10:50 AM41.0 °F37.4 °F87 %29.68 in6.2 miWest (260°)19.6 mphRainLight Rain
11:20 AM39.2 °F37.4 °F93 %29.68 in6.2 miWest (270°)20.7 mphRainLight Rain
11:50 AM39.2 °F37.4 °F93 %29.68 in3.7 miWest (270°)19.6 mphRainRain
12:20 PM39.2 °F37.4 °F93 %29.68 in5.6 miWest (270°)19.6 mphRainRain
12:50 PM39.2 °F37.4 °F93 %29.65 in6.2 miWest (270°)19.6 mphRainRain
1:20 PM39.2 °F37.4 °F93 %29.65 in5.0 miWest (280°)17.3 mphRainRain
1:50 PM37.4 °F33.8 °F87 %29.65 in5.6 miNW (320°)16.1 mphRainRain
2:20 PM37.4 °F33.8 °F87 %29.65 in6.2 miNW (310°)15.0 mphRainLight Rain
2:50 PM35.6 °F33.8 °F93 %29.65 in4.3 miWNW (300°)13.8 mphRainLight Rain
3:20 PM35.6 °F33.8 °F93 %29.65 in6.2 miWNW (300°)12.7 mphRainLight Rain
3:50 PM35.6 °F33.8 °F93 %29.68 in6.2 miNorth (350°)10.4 mphRainLight Rain
4:20 PM35.6 °F32.0 °F87 %29.68 in6.2 miNorth (360°)9.2 mphMostly Cloudy
4:50 PM35.6 °F32.0 °F87 %29.68 in6.2 miNorth (350°)6.9 mphMostly Cloudy
5:20 PM35.6 °F33.8 °F93 %29.68 in6.2 miNorth (350°)8.1 mphMostly Cloudy
5:50 PM33.8 °F32.0 °F93 %29.68 in6.2 miNorth (10°)6.9 mphRainLight Rain
6:20 PM33.8 °F32.0 °F93 %29.71 in6.2 miNorth (360°)6.9 mphMostly Cloudy
6:50 PM33.8 °F32.0 °F93 %29.71 in2.8 miNorth (350°)9.2 mphSnowLight Snow
7:20 PM33.8 °F30.2 °F87 %29.71 in6.2 miNorth (360°)9.2 mphMostly Cloudy
7:50 PM33.8 °F30.2 °F87 %29.71 in6.2 miNorth (360°)8.1 mphMostly Cloudy
8:20 PM33.8 °F30.2 °F87 %29.71 in6.2 miNNW (340°)9.2 mphMostly Cloudy
8:50 PM32.0 °F30.2 °F93 %29.71 in6.2 miNorth (360°)9.2 mphMostly Cloudy
9:20 PM32.0 °F30.2 °F93 %29.74 in6.2 miNorth (360°)8.1 mphMostly Cloudy
9:50 PM32.0 °F30.2 °F93 %29.74 in6.2 miNNW (340°)9.2 mphMostly Cloudy
10:20 PM32.0 °F30.2 °F93 %29.74 in3.1 miNNW (330°)9.2 mphSnowLight Snow Showers
10:50 PM32.0 °F26.6 °F80 %29.74 in6.2 miNW (320°)10.4 mphSnowLight Snow
11:20 PM32.0 °F26.6 °F80 %29.74 in6.2 miNW (320°)13.8 mphSnowLight Snow
11:50 PM32.0 °F24.8 °F75 %29.74 in6.2 miNNW (330°)10.4 mphMostly Cloudy
Hourly data recorded from EDDB, located miles away from Berlin, Germany







STORIES FROM OUR PARTNERS